Land O' Lakes, WI

6:36 AM CST on December 12, 2017 (GMT -0600)
Kings Land O'Lakes

Weather History for KLNL - September, 2013

Change the Weather History Date:

Tuesday, September 24, 2013

  Actual Average (KEGV) Record (KEGV)
Temperature  
Mean Temperature 53 °F -  
Max Temperature 70 °F 59 °F 86 °F (2017)
Min Temperature 36 °F 36 °F 28 °F (1999)
Degree Days  
Heating Degree Days 12    
Growing Degree Days 3 (Base 50)    
Moisture  
Dew Point 46 °F    
Average Humidity 84    
Maximum Humidity 100    
Minimum Humidity 37    
Precipitation  
Precipitation 0.00 in - - ()
Sea Level Pressure  
Sea Level Pressure 30.05 in    
Wind  
Wind Speed 2 mph (SSE)    
Max Wind Speed 6 mph    
Max Gust Speed -    
Visibility 6 miles    
Events Fog    
Averages and records for this station are not official NWS values.
T = Trace of Precipitation, MM = Missing Value Source: NWS Daily Summary

Daily Weather History Graph

Daily Weather History Graph

Search for Another Location

Airport or City:

Trip Planner

Search our weather history database for the weather conditions in past years. The results will help you decide how hot, cold, wet, or windy it might be!

Date:

Astronomy

Sep. 24, 2013 Rise Set
Actual Time 6:46 AM CDT 6:49 PM CDT
Civil Twilight 6:16 AM CDT 7:19 PM CDT
Nautical Twilight 5:41 AM CDT 7:54 PM CDT
Astronomical Twilight 5:05 AM CDT 8:30 PM CDT
Moon 9:50 PM CDT (9/24) 12:18 PM CDT (9/24)
Length of Visible Light 13h 03m
Length of Day
12h 03m
Waning Gibbous, 73% of the Moon is Illuminated
Sep 24
Waning Gibbous
Sep 26
Last Quarter
Oct 4
New
Oct 11
First Quarter
Oct 18
Full

Hourly Weather History & Observations

Time (CDT) Temp. Windchill Dew Point Humidity Pressure Visibility Wind Dir Wind Speed Gust Speed Precip Events Conditions
12:15 AM 46.8 °F - 45.1 °F 94% 30.06 in 10.0 mi SSE 4.6 mph - N/A   Clear
12:35 AM 46.4 °F 44.3 °F 44.8 °F 94% 30.06 in 10.0 mi South 4.6 mph - N/A   Clear
12:55 AM 45.7 °F 44.4 °F 44.6 °F 96% 30.06 in 10.0 mi SSE 3.5 mph - N/A   Clear
1:15 AM 45.1 °F 42.8 °F 44.1 °F 96% 30.07 in 7.0 mi SSE 4.6 mph - N/A   Clear
1:35 AM 45.0 °F - 44.1 °F 97% 30.07 in 7.0 mi Calm Calm - N/A   Clear
1:55 AM 44.2 °F - 43.3 °F 97% 30.07 in 5.0 mi Calm Calm - N/A   Clear
2:35 AM 39.6 °F - 39.2 °F 99% 30.07 in 0.5 mi Calm Calm - N/A Fog Fog
2:55 AM 39.0 °F - 38.7 °F 99% 30.07 in 4.0 mi Calm Calm - N/A   Clear
3:15 AM 37.8 °F - 37.8 °F 100% 30.08 in 0.8 mi Calm Calm - N/A   Mist
3:35 AM 36.9 °F - 36.9 °F 100% 30.09 in 0.5 mi Calm Calm - N/A Fog Fog
3:55 AM 36.1 °F - 36.1 °F 100% 30.10 in 0.5 mi Calm Calm - N/A Fog Fog
4:35 AM 38.5 °F - 38.5 °F 100% 30.10 in 2.5 mi Calm Calm - N/A   Overcast
4:55 AM 39.7 °F - 39.7 °F 100% 30.10 in 0.5 mi Calm Calm - N/A Fog Fog
5:15 AM 41.9 °F - 41.9 °F 100% 30.09 in 0.2 mi Calm Calm - N/A Fog Fog
5:35 AM 41.9 °F - 41.9 °F 100% 30.10 in 0.8 mi Calm Calm - N/A   Overcast
5:55 AM 41.5 °F - 41.5 °F 100% 30.10 in 0.5 mi Calm Calm - N/A Fog Fog
6:15 AM 43.3 °F 41.7 °F 43.3 °F 100% 30.11 in 0.2 mi SSW 3.5 mph - N/A Fog Fog
6:35 AM 43.0 °F - 43.0 °F 100% 30.10 in 0.2 mi Calm Calm - N/A Fog Fog
6:55 AM 42.8 °F - 42.8 °F 100% 30.10 in 0.2 mi Calm Calm - N/A Fog Fog
7:15 AM 43.2 °F - 43.2 °F 100% 30.10 in 0.2 mi Calm Calm - N/A Fog Fog
7:35 AM 44.1 °F - 44.1 °F 100% 30.10 in 0.2 mi Calm Calm - N/A Fog Fog
7:55 AM 44.8 °F - 44.8 °F 100% 30.10 in 0.2 mi Calm Calm - N/A Fog Fog
8:15 AM 45.9 °F - 45.9 °F 100% 30.10 in 0.2 mi Calm Calm - N/A Fog Fog
8:35 AM 47.3 °F - 47.3 °F 100% 30.10 in 0.2 mi Calm Calm - N/A Fog Fog
8:55 AM 49.1 °F - 49.1 °F 100% 30.10 in 0.2 mi South 4.6 mph - N/A Fog Fog
9:15 AM 49.8 °F - 49.8 °F 100% 30.10 in 0.2 mi South 3.5 mph - N/A Fog Fog
9:35 AM 50.4 °F - 50.4 °F 100% 30.10 in 0.2 mi South 4.6 mph - N/A Fog Fog
9:55 AM 51.3 °F - 51.3 °F 100% 30.10 in 1.0 mi SSE 3.5 mph - N/A   Overcast
10:15 AM 52.0 °F - 52.0 °F 100% 30.09 in 4.0 mi SSW 4.6 mph - N/A   Overcast
10:35 AM 53.1 °F - 53.1 °F 100% 30.09 in 7.0 mi SSE 3.5 mph - N/A   Mostly Cloudy
10:55 AM 54.7 °F - 54.7 °F 100% 30.08 in 10.0 mi SE 4.6 mph - N/A   Scattered Clouds
11:15 AM 55.9 °F - 55.9 °F 100% 30.07 in 10.0 mi SE 4.6 mph - N/A   Clear
11:35 AM 61.3 °F - 52.7 °F 73% 30.07 in 10.0 mi South 4.6 mph - N/A   Clear
12:15 PM 64.8 °F - 51.3 °F 62% 30.06 in 10.0 mi South 3.5 mph - N/A   Clear
12:55 PM 66.4 °F - 49.6 °F 55% 30.05 in 10.0 mi Calm Calm - N/A   Clear
1:15 PM 67.1 °F - 48.9 °F 52% 30.04 in 10.0 mi South 3.5 mph - N/A   Clear
1:35 PM 67.8 °F - 50.0 °F 53% 30.03 in 10.0 mi Calm Calm - N/A   Clear
1:55 PM 68.2 °F - 48.2 °F 49% 30.03 in 10.0 mi SE 3.5 mph - N/A   Clear
2:15 PM 68.7 °F - 47.3 °F 46% 30.03 in 10.0 mi Calm Calm - N/A   Clear
2:35 PM 69.8 °F - 48.6 °F 47% 30.02 in 10.0 mi South 4.6 mph - N/A   Clear
2:55 PM 70.0 °F - 48.0 °F 46% 30.02 in 10.0 mi SSE 3.5 mph - N/A   Clear
3:15 PM 70.2 °F - 47.7 °F 45% 30.02 in 10.0 mi SSE 3.5 mph - N/A   Clear
3:35 PM 69.8 °F - 47.7 °F 45% 30.01 in 10.0 mi SSE 4.6 mph - N/A   Clear
3:55 PM 70.0 °F - 45.1 °F 41% 30.01 in 10.0 mi South 5.8 mph - N/A   Clear
4:15 PM 69.8 °F - 42.3 °F 37% 30.01 in 10.0 mi SE 4.6 mph - N/A   Clear
4:35 PM 69.8 °F - 43.0 °F 38% 30.01 in 10.0 mi South 4.6 mph - N/A   Clear
4:55 PM 69.4 °F - 45.0 °F 41% 30.01 in 10.0 mi South 4.6 mph - N/A   Clear
5:15 PM 68.2 °F - 47.3 °F 47% 30.01 in 10.0 mi South 3.5 mph - N/A   Clear
5:35 PM 68.2 °F - 46.6 °F 46% 30.01 in 10.0 mi Calm Calm - N/A   Clear
5:55 PM 67.3 °F - 48.2 °F 50% 30.01 in 10.0 mi Calm Calm - N/A   Clear
6:15 PM 64.6 °F - 50.0 °F 59% 30.01 in 10.0 mi Calm Calm - N/A   Clear
6:35 PM 57.9 °F - 52.7 °F 83% 30.01 in 10.0 mi Calm Calm - N/A   Clear
6:55 PM 55.2 °F - 51.6 °F 88% 30.01 in 10.0 mi Calm Calm - N/A   Clear
7:15 PM 52.9 °F - 50.9 °F 93% 30.01 in 10.0 mi Calm Calm - N/A   Clear
7:35 PM 53.8 °F - 50.9 °F 90% 30.01 in 10.0 mi SE 4.6 mph - N/A   Clear
7:55 PM 54.5 °F - 51.1 °F 88% 30.01 in 10.0 mi Calm Calm - N/A   Clear
8:15 PM 50.9 °F - 48.7 °F 92% 30.01 in 10.0 mi Calm Calm - N/A   Clear
8:35 PM 49.1 °F - 47.8 °F 95% 30.02 in 7.0 mi Calm Calm - N/A   Clear
8:55 PM 48.6 °F - 48.0 °F 98% 30.02 in 10.0 mi Calm Calm - N/A   Clear
9:15 PM 46.9 °F - 46.2 °F 97% 30.02 in 1.0 mi Calm Calm - N/A   Mist
9:35 PM 46.8 °F - 46.4 °F 99% 30.03 in 1.2 mi Calm Calm - N/A   Mist
9:55 PM 45.9 °F - 45.7 °F 99% 30.02 in 1.2 mi Calm Calm - N/A   Mist
10:15 PM 45.3 °F - 45.0 °F 99% 30.03 in 3.0 mi Calm Calm - N/A   Clear
10:35 PM 43.5 °F - 43.2 °F 99% 30.03 in - Calm Calm - N/A   Unknown
10:55 PM 43.5 °F - 43.3 °F 99% 30.03 in 1.2 mi Calm Calm - N/A   Mist
11:15 PM 42.6 °F - 42.6 °F 100% 30.03 in 7.0 mi Calm Calm - N/A   Clear
11:35 PM 42.3 °F - 42.3 °F 100% 30.03 in 0.5 mi Calm Calm - N/A Fog Fog
11:55 PM 40.6 °F - 40.5 °F 99% 30.03 in 0.5 mi Calm Calm - N/A Fog Fog